星链-5324 (STARLINK-5324 )

导读

STARLINK-5324是美国SpaceX公司西雅图分部制造的星链系列商业通信卫星,NORAD编号55677,于2023年2月17日在西部靶场使用猎鹰9火箭发射,运行在近地轨道,近地点约568公里、远地点约572公里,倾角约70度,整星湿质量305千克,承担全球卫星互联网通信服务任务,是星链星座组网的组成部分。

Basic Information
目录编号:
55677
目录名称:
STARLINK-5324
国际标识:
2023-021BB
轨道中心:
EARTH
卫星名称:
星链-5324
卫星全名:
星链-5324 (STARLINK-5324 )
卫星状态:
在轨 (已飞行1214 天)
发射日期:
2023-02-17 UTC
国别 :
美国 (US)
星等 :
--
Orbit Information
数据来源 国际轨道数据 AOE轨道数据
星历时间 2026-06-14T23:47:42+0800
15小时前
查看轨道信息
2026-06-15T05:00:00+0800
10小时前
查看轨道信息
半长轴 6950.198km 6950.114km
偏心率 0.0003121 0.0003305
轨道倾角 69.999° 69.998°
近地点辐角 270.681° 275.084°
升交点赤经 259.918° 259.370°
平近点角 89.400° 174.499°
近地点 569.891km 569.679km
远地点 574.231km 574.275km
周期 96.107分钟 96.105分钟
每日圈数 14.983284 14.983558
Detailed Information
固有亮度:
5
最大亮度:
2.5
卫星平台:
Starlink v1.5
覆盖范围:
全球
运营商:
太空探索技术公司
运营商所在国:
美国
制造商(研发单位):
太空探索技术公司
制造商所在国:
美国
使用方式:
暂无
Satellite Introduction
星链(Starlink)计划是由太空探索技术公司(SpaceX)提出的一个巨型低轨卫星互联网星座项目,计划在2019年至2024年间在太空搭建由约1.2万颗卫星组成的“星链”网络,其中1584颗将部署在地球上空550千米处的近地轨道,并从2020年开始工作。该卫星仍在工作。
2D Orbit Map
3D Orbit Map
Orbit Altitude Analysis Chart
Orbit Inclination Analysis Chart
Orbit Comprehensive Analysis Chart
View Comprehensive Chart